STARLINK-34004

Last updated on Fri Jun 13 2025 00:02:05 GMT+0000 (Coordinated Universal Time)

1 63941U 25098R 25163.50002315 .00033551 00000+0 76679-3 0 9994 2 63941 69.9992 240.7991 0003362 275.6808 67.3190 15.42688402 5798
UTC large
Height (km)
Speed (km/s)
/
Latitude / Longitude
Inclination (degrees)
Orbital Period (minutes)
Azimuth
Elevation
Range (km)
Doppler Factor

Next 0 passes for location: London (51.5072 / 0.1276)

Sorry there are no passes over London.